Location: Newark
(44.0160°N, 116.9215°W)
Time: 15:18:36
(UTC+00:00)

Envisat - Pass Details

Date: 24 November 2019
Orbit: 764 x 766 km, 98.1° (Epoch: 11 December)

Event Time Altitude Azimuth Distance (km) Brightness Sun altitude
Rises 02:27:14 0° 189° (S) 3,218 6.4 -23.4°
Reaches altitude 10° 02:29:43 10° 198° (SSW) 2,296 5.7 -23.9°
Maximum altitude 02:34:19 35° 264° (W) 1,229 4.6 -24.7°
Drops below altitude 10° 02:38:58 10° 329° (NNW) 2,311 5.8 -25.5°
Sets 02:41:29 0° 339° (NNW) 3,242 6.5 -26.0°
